Orbital Elements at Epoch 2459200.5 (2020-Dec-17.0) TDB
Reference: JPL 20 (heliocentric ecliptic J2000)
Element | Value | Uncertainty (1-sigma) | Units |
e | .1688654940346297 | 5.3905e-08 | |
a | 3.01391310024635 | 2.1478e-08 | au |
q | 2.504967175595808 | 1.633e-07 | au |
i | 4.505619037238169 | 6.027e-06 | deg |
node | 59.87084196387323 | 7.0787e-05 | deg |
peri | 120.6910382210368 | 7.3257e-05 | deg |
M | 343.1640156852728 | 1.6445e-05 | deg |
tp | 2459289.877978512957 (2021-Mar-16.37797851) | 8.7355e-05 | TDB |
period | 1911.148862054856 5.23 | 2.0429e-05 5.593e-08 | d yr |
n | .1883683721073041 | 2.0135e-09 | deg/d |
Q | 3.522859024896892 | 2.5105e-08 | au |
|
| | Orbit Determination Parameters
Additional Information
|